Latest Coastal Weather Observations for Esperance Harbour

IDW60701

Issued at 12:02 am WST Tuesday 7 July 2015 (issued every 10 minutes, with the page automatically refreshed every 10 minutes)

About coastal observations | Map of coastal stations | Coastal observations for WA | Marine services | Other Formats
Station Details ID: 109504 Name: ESPERANCE NTC AWS Lat: -33.87 Lon: 121.90 Height: 0.0 m
Data from the previous 72 hours. | See also: Recent months for locations in Western Australia
Date/Time
WST
Temp

°C
Wind Pressure Rain
since 9am
mm
Weather Cloud Vis
km
Sea
Height
m
Swell
Dir
 
Speed
knots
Gust
knots
hPa Trend Height
m
Period
s
Dir
07/12:00am 10.7 - - - 1019.7 - - - - - - - - -
 
Date/Time
WST
Temp

°C
Wind Pressure Rain
since 9am
mm
Weather Cloud Vis
km
Sea
Height
m
Swell
Dir
 
Speed
knots
Gust
knots
hPa Trend Height
m
Period
s
Dir
06/11:30pm 9.1 - - - 1019.9 - - - - - - - - -
06/11:00pm 10.2 - - - 1019.9 - - - - - - - - -
06/10:30pm 11.3 - - - 1020.1 - - - - - - - - -
06/10:00pm 11.9 - - - 1020.3 - - - - - - - - -
06/09:30pm 11.5 - - - 1020.3 - - - - - - - - -
06/09:00pm 11.9 - - - 1020.6 - - - - - - - - -
06/08:30pm 12.8 - - - 1020.6 - - - - - - - - -
06/08:00pm 12.7 - - - 1020.7 - - - - - - - - -
06/07:30pm 13.0 - - - 1020.6 - - - - - - - - -
06/07:00pm 13.7 - - - 1020.5 - - - - - - - - -
06/06:30pm 15.1 - - - 1020.3 - - - - - - - - -
06/06:00pm 15.4 - - - 1020.3 - - - - - - - - -
06/05:30pm 16.0 - - - 1020.2 - - - - - - - - -
06/05:00pm 16.7 - - - 1020.0 - - - - - - - - -
06/04:30pm 17.6 - - - 1019.9 - - - - - - - - -
06/04:00pm 17.7 - - - 1019.9 - - - - - - - - -
06/03:30pm 17.9 - - - 1019.9 - - - - - - - - -
06/03:00pm 18.0 - - - 1019.9 - - - - - - - - -
06/02:30pm 17.8 - - - 1019.9 - - - - - - - - -
06/02:00pm 17.8 - - - 1019.9 - - - - - - - - -
06/01:30pm 17.8 - - - 1020.1 - - - - - - - - -
06/01:00pm 17.4 - - - 1020.4 - - - - - - - - -
06/12:30pm 17.5 - - - 1020.8 - - - - - - - - -
06/12:00pm 17.2 - - - 1021.0 - - - - - - - - -
06/11:30am 16.9 - - - 1021.3 - - - - - - - - -
06/11:00am 16.1 - - - 1021.7 - - - - - - - - -
06/10:30am 15.2 - - - 1021.9 - - - - - - - - -
06/10:00am 13.8 - - - 1022.0 - - - - - - - - -
06/09:30am 12.4 - - - 1022.1 - - - - - - - - -
06/09:00am 11.4 - - - 1021.9 - - - - - - - - -
06/08:30am 9.8 - - - 1021.9 - - - - - - - - -
06/08:00am 8.9 - - - 1021.6 - - - - - - - - -
06/07:30am 8.5 - - - 1021.3 - - - - - - - - -
06/07:00am 8.3 - - - 1021.2 - - - - - - - - -
06/06:30am 8.3 - - - 1020.8 - - - - - - - - -
06/06:00am 8.1 - - - 1020.7 - - - - - - - - -
06/05:30am 7.9 - - - 1020.4 - - - - - - - - -
06/05:00am 8.4 - - - 1020.2 - - - - - - - - -
06/04:30am 8.2 - - - 1020.1 - - - - - - - - -
06/04:00am 8.5 - - - 1020.2 - - - - - - - - -
06/03:30am 9.0 - - - 1020.2 - - - - - - - - -
06/03:00am 9.6 - - - 1020.2 - - - - - - - - -
06/02:30am 9.9 - - - 1020.2 - - - - - - - - -
06/02:00am 10.2 - - - 1020.3 - - - - - - - - -
06/01:30am 11.7 - - - 1020.3 - - - - - - - - -
06/01:00am 11.6 - - - 1020.5 - - - - - - - - -
06/12:30am 12.0 - - - 1020.5 - - - - - - - - -
06/12:00am 12.2 - - - 1020.5 - - - - - - - - -
 
Date/Time
WST
Temp

°C
Wind Pressure Rain
since 9am
mm
Weather Cloud Vis
km
Sea
Height
m
Swell
Dir
 
Speed
knots
Gust
knots
hPa Trend Height
m
Period
s
Dir
05/11:30pm 11.9 - - - 1020.7 - - - - - - - - -
05/11:00pm 12.1 - - - 1021.0 - - - - - - - - -
05/10:30pm 12.0 - - - 1021.0 - - - - - - - - -
05/10:00pm 12.2 - - - 1021.0 - - - - - - - - -
05/09:30pm 12.1 - - - 1021.0 - - - - - - - - -
05/09:00pm 12.2 - - - 1021.0 - - - - - - - - -
05/08:30pm 12.3 - - - 1021.3 - - - - - - - - -
05/08:00pm 12.3 - - - 1021.2 - - - - - - - - -
05/07:30pm 13.5 - - - 1021.0 - - - - - - - - -
05/07:00pm 13.5 - - - 1020.8 - - - - - - - - -
05/06:30pm 13.9 - - - 1020.6 - - - - - - - - -
05/06:00pm 14.4 - - - 1020.2 - - - - - - - - -
05/05:30pm 14.7 - - - 1020.0 - - - - - - - - -
05/05:00pm 15.3 - - - 1020.0 - - - - - - - - -
05/04:30pm 16.2 - - - 1019.9 - - - - - - - - -
05/04:00pm 17.3 - - - 1019.8 - - - - - - - - -
05/03:30pm 16.6 - - - 1019.7 - - - - - - - - -
05/03:00pm 16.6 - - - 1019.5 - - - - - - - - -
05/02:30pm 16.5 - - - 1019.3 - - - - - - - - -
05/02:00pm 16.3 - - - 1019.3 - - - - - - - - -
05/01:30pm 16.5 - - - 1019.4 - - - - - - - - -
05/01:00pm 16.8 - - - 1019.5 - - - - - - - - -
05/12:30pm 17.1 - - - 1019.7 - - - - - - - - -
05/12:00pm 17.3 - - - 1019.7 - - - - - - - - -
05/11:30am 16.9 - - - 1019.9 - - - - - - - - -
05/11:00am 16.6 - - - 1020.3 - - - - - - - - -
05/10:30am 16.4 - - - 1020.3 - - - - - - - - -
05/10:00am 16.3 - - - 1020.2 - - - - - - - - -
05/09:30am 15.7 - - - 1020.0 - - - - - - - - -
05/09:00am 15.3 - - - 1019.7 - - - - - - - - -
05/08:30am 14.2 - - - 1019.4 - - - - - - - - -
05/08:00am 11.8 - - - 1019.2 - - - - - - - - -
05/07:30am 11.3 - - - 1019.0 - - - - - - - - -
05/07:00am 11.1 - - - 1018.7 - - - - - - - - -
05/06:30am 11.3 - - - 1018.1 - - - - - - - - -
05/06:00am 11.2 - - - 1017.8 - - - - - - - - -
05/05:30am 11.2 - - - 1017.6 - - - - - - - - -
05/05:00am 11.3 - - - 1017.4 - - - - - - - - -
05/04:30am 11.4 - - - 1017.3 - - - - - - - - -
05/04:00am 11.3 - - - 1017.4 - - - - - - - - -
05/03:30am 11.3 - - - 1017.5 - - - - - - - - -
05/03:00am 11.5 - - - 1017.6 - - - - - - - - -
05/02:30am 11.5 - - - 1017.6 - - - - - - - - -
05/02:00am 11.4 - - - 1017.6 - - - - - - - - -
05/01:30am 11.6 - - - 1017.6 - - - - - - - - -
05/01:00am 11.4 - - - 1017.8 - - - - - - - - -
05/12:30am 11.6 - - - 1017.8 - - - - - - - - -
05/12:00am 11.5 - - - 1017.9 - - - - - - - - -
 
Date/Time
WST
Temp

°C
Wind Pressure Rain
since 9am
mm
Weather Cloud Vis
km
Sea
Height
m
Swell
Dir
 
Speed
knots
Gust
knots
hPa Trend Height
m
Period
s
Dir
04/11:30pm 12.0 - - - 1018.0 - - - - - - - - -
04/11:00pm 12.3 - - - 1018.1 - - - - - - - - -
04/10:30pm 12.2 - - - 1018.1 - - - - - - - - -
04/10:00pm 12.6 - - - 1018.3 - - - - - - - - -
04/09:30pm 12.6 - - - 1018.5 - - - - - - - - -
04/09:00pm 13.4 - - - 1018.8 - - - - - - - - -
04/08:30pm 13.4 - - - 1019.0 - - - - - - - - -
04/08:00pm 13.4 - - - 1019.0 - - - - - - - - -
04/07:30pm 14.0 - - - 1019.1 - - - - - - - - -
04/07:00pm 14.2 - - - 1019.0 - - - - - - - - -
04/06:30pm 14.2 - - - 1019.3 - - - - - - - - -
04/06:00pm 14.9 - - - 1019.3 - - - - - - - - -
04/05:30pm 15.7 - - - 1019.0 - - - - - - - - -
04/05:00pm 16.2 - - - 1018.9 - - - - - - - - -
04/04:30pm 16.8 - - - 1018.6 - - - - - - - - -
04/04:00pm 17.3 - - - 1019.0 - - - - - - - - -
04/03:30pm 17.8 - - - 1018.9 - - - - - - - - -
04/03:00pm 17.7 - - - 1019.0 - - - - - - - - -
04/02:30pm 17.6 - - - 1018.8 - - - - - - - - -
04/02:00pm 17.8 - - - 1018.9 - - - - - - - - -
04/01:30pm 18.0 - - - 1019.2 - - - - - - - - -
04/01:00pm 18.0 - - - 1019.4 - - - - - - - - -
04/12:30pm 17.6 - - - 1019.6 - - - - - - - - -
04/12:00pm 17.3 - - - 1020.0 - - - - - - - - -
04/11:30am 16.7 - - - 1020.5 - - - - - - - - -
04/11:00am 16.2 - - - 1020.9 - - - - - - - - -
04/10:30am 15.2 - - - 1021.2 - - - - - - - - -
04/10:00am 14.3 - - - 1021.3 - - - - - - - - -
04/09:30am 13.7 - - - 1021.2 - - - - - - - - -
04/09:00am 13.3 - - - 1021.1 - - - - - - - - -
04/08:30am 12.3 - - - 1021.1 - - - - - - - - -
04/08:00am 11.9 - - - 1021.0 - - - - - - - - -
04/07:30am 11.6 - - - 1020.8 - - - - - - - - -
04/07:00am 11.4 - - - 1020.8 - - - - - - - - -
04/06:30am 11.2 - - - 1020.8 - - - - - - - - -
04/06:00am 10.9 - - - 1020.6 - - - - - - - - -
04/05:30am 11.0 - - - 1020.3 - - - - - - - - -
04/05:00am 11.3 - - - 1020.2 - - - - - - - - -
04/04:30am 11.4 - - - 1020.4 - - - - - - - - -
04/04:00am 11.4 - - - 1020.5 - - - - - - - - -
04/03:30am 11.4 - - - 1020.6 - - - - - - - - -
04/03:00am 12.0 - - - 1020.5 - - - - - - - - -
04/02:30am 12.2 - - - 1020.6 - - - - - - - - -
04/02:00am 12.2 - - - 1020.7 - - - - - - - - -
04/01:30am 12.4 - - - 1020.5 - - - - - - - - -
04/01:00am 12.4 - - - 1020.5 - - - - - - - - -
04/12:30am 12.6 - - - 1020.6 - - - - - - - - -

Other Formats:

Comma delimited format used in spreadsheet applications
http://www.bom.gov.au/fwo/IDW60701/IDW60701.95648.axf

JavaScript Object Notation format (JSON) in row-major order
http://www.bom.gov.au/fwo/IDW60701/IDW60701.95648.json